FW7737 Weather Reports


time (UTC)temp
F
wind
direction
speed
knots
gust
knots
rain 1hr
in
rain 24hr
in
rain mn
in
humidity
%
barometer
mb
20260503211944 81 262 1.7 2.6 0.00 0.00 0.00 42 1011.6
20260503211441 82 280 0.9 0.9 0.00 0.00 0.00 42 1012.0
20260503210936 81 259 0.9 1.7 0.00 0.00 0.00 41 1011.6
20260503210433 80 279 0.9 0.9 0.00 0.00 0.00 42 1011.6
20260503205928 80 304 1.7 1.7 0.00 0.00 0.00 43 1011.6
20260503205425 80 269 2.6 3.5 0.00 0.00 0.00 43 1012.0
20260503204921 80 296 4.3 5.2 0.00 0.00 0.00 45 1012.0
20260503204419 81 307 1.7 1.7 0.00 0.00 0.00 44 1012.0
20260503203916 80 47 1.7 2.6 0.00 0.00 0.00 46 1012.0
20260503203413 79 238 0.9 1.7 0.00 0.00 0.00 45 1012.0
20260503202910 79 220 2.6 3.5 0.00 0.00 0.00 46 1012.4
20260503202408 78 293 2.6 3.5 0.00 0.00 0.00 46 1012.4
20260503201906 80 239 0.9 0.9 0.00 0.00 0.00 44 1012.0
20260503201403 79 270 2.6 3.5 0.00 0.00 0.00 45 1012.4
20260503200901 78 238 4.3 6.1 0.00 0.00 0.00 45 1012.4
20260503200356 78 333 2.6 3.5 0.00 0.00 0.00 46 1012.7
20260503195854 78 294 2.6 3.5 0.00 0.00 0.00 48 1012.4
20260503195350 79 230 0.9 1.7 0.00 0.00 0.00 46 1012.4
20260503194847 77 238 0.9 0.9 0.00 0.00 0.00 51 1012.7
20260503194343 78 248 1.7 2.6 0.00 0.00 0.00 49 1012.7
20260503193840 78 259 0.9 0.9 0.00 0.00 0.00 47 1012.7
20260503193335 77 169 0.9 0.9 0.00 0.00 0.00 48 1013.0
20260503192831 76 319 1.7 1.7 0.00 0.00 0.00 48 1013.0
20260503192327 75 4 3.5 3.5 0.00 0.00 0.00 48 1013.0
20260503191824 76 90 0.9 1.7 0.00 0.00 0.00 49 1013.0
20260503191321 76 206 1.7 2.6 0.00 0.00 0.00 47 1013.0
20260503190817 77 323 2.6 2.6 0.00 0.00 0.00 47 1013.0
20260503190315 76 214 0.0 0.9 0.00 0.00 0.00 48 1013.0
20260503185812 75 251 1.7 1.7 0.00 0.00 0.00 51 1013.4
20260503185308 77 238 1.7 1.7 0.00 0.00 0.00 51 1013.4
20260503184808 76 297 1.7 1.7 0.00 0.00 0.00 52 1013.4
20260503184304 76 220 0.9 0.9 0.00 0.00 0.00 54 1013.4
20260503183800 75 255 0.9 0.9 0.00 0.00 0.00 54 1013.4
20260503183258 73 262 1.7 1.7 0.00 0.00 0.00 56 1013.4
20260503182755 73 180 0.9 0.9 0.00 0.00 0.00 57 1013.4
20260503182254 74 161 0.0 0.0 0.00 0.00 0.00 55 1013.7
20260503181750 72 320 1.7 3.5 0.00 0.00 0.00 60 1013.4
20260503181247 71 166 0.0 0.0 0.00 0.00 0.00 62 1013.7
20260503180743 72 300 3.5 3.5 0.00 0.00 0.00 56 1013.7
20260503180242 71 179 1.7 1.7 0.00 0.00 0.00 62 1013.7
20260503175738 71 163 2.6 3.5 0.00 0.00 0.00 63 1014.1
20260503175236 71 187 3.5 3.5 0.00 0.00 0.00 64 1013.7
20260503174732 71 51 0.9 0.9 0.00 0.00 0.00 65 1013.7
20260503174231 70 186 1.7 1.7 0.00 0.00 0.00 65 1014.1
20260503173730 69 344 0.9 1.7 0.00 0.00 0.00 61 1014.1
20260503173227 69 225 0.9 0.9 0.00 0.00 0.00 60 1014.1
20260503172724 69 286 0.9 1.7 0.00 0.00 0.00 67 1014.1
20260503172221 68 220 0.9 0.9 0.00 0.00 0.00 68 1014.1
20260503171717 68 222 0.9 0.9 0.00 0.00 0.00 69 1014.1
20260503171215 67 129 0.0 0.0 0.00 0.00 0.00 67 1014.1
20260503170711 66 138 0.0 0.9 0.00 0.00 0.00 72 1014.1
20260503170208 65 229 0.0 0.9 0.00 0.00 0.00 74 1014.1
20260503160130 60 184 0.0 0.9 0.00 0.00 0.00 83 1014.1
20260503150600 57 197 0.0 0.0 0.00 0.00 0.00 90 1014.4
20260503130949 51 220 0.0 0.0 0.00 0.00 0.00 99 1014.1
20260503130447 51 221 0.0 0.0 0.00 0.00 0.00 99 1014.1
20260503110338 53 211 0.0 0.0 0.00 0.00 0.00 94 1014.4
20260503090224 55 213 0.0 0.0 0.00 0.00 0.00 82 1014.4
20260503081151 56 213 0.0 0.0 0.00 0.00 0.00 78 1014.4
20260503080646 56 213 0.0 0.0 0.00 0.00 0.00 79 1014.4
20260503080144 56 213 0.0 0.0 0.00 0.00 0.00 79 1014.4
20260503072620 56 194 0.0 0.0 0.00 0.00 0.00 78 1014.4
20260503072117 57 194 0.0 0.0 0.00 0.00 0.00 76 1014.4
20260503071614 57 194 0.0 0.0 0.00 0.00 0.00 75 1014.1
20260503071111 57 194 0.0 0.0 0.00 0.00 0.00 76 1014.7
20260503070608 57 194 0.0 0.9 0.00 0.00 0.00 76 1014.4
20260503070106 57 196 0.0 0.9 0.00 0.00 0.00 76 1014.1
20260503055026 59 207 0.0 0.0 0.00 0.00 0.00 67 1014.1
20260503054522 60 207 0.0 0.0 0.00 0.00 0.00 66 1014.1
20260503054020 60 207 0.0 0.0 0.00 0.00 0.00 66 1014.4
20260503053518 60 207 0.0 0.0 0.00 0.00 0.00 65 1014.4
20260503053015 61 193 0.0 0.9 0.00 0.00 0.00 68 1014.4
20260503052512 61 224 0.0 0.0 0.00 0.00 0.00 63 1014.4
20260503052008 62 225 0.0 0.0 0.00 0.00 0.00 63 1014.4
20260503051503 61 226 0.0 0.0 0.00 0.00 0.00 63 1014.4
20260503051001 62 196 0.0 0.0 0.00 0.00 0.00 63 1014.4
20260503050457 62 229 0.0 0.0 0.00 0.00 0.00 62 1014.4
20260503045955 62 256 0.9 0.9 0.00 0.00 0.00 62 1014.4
20260503045452 61 218 0.0 0.0 0.00 0.00 0.00 64 1014.4
20260503044949 62 223 0.0 0.0 0.00 0.00 0.00 63 1014.4
20260503044445 62 223 0.0 0.0 0.00 0.00 0.00 65 1014.1
20260503043943 62 218 0.0 0.0 0.00 0.00 0.00 64 1014.1
20260503043439 62 217 0.0 0.0 0.00 0.00 0.00 63 1014.1
20260503042935 62 220 0.0 0.0 0.00 0.00 0.00 64 1014.1
20260503042432 62 220 0.0 0.0 0.00 0.00 0.00 63 1014.1
20260503041929 63 220 0.0 0.0 0.00 0.00 0.00 64 1014.1
20260503041426 63 199 0.0 0.0 0.00 0.00 0.00 62 1014.1
20260503040923 63 199 0.0 0.0 0.00 0.00 0.00 63 1014.1
20260503040420 64 211 0.0 0.0 0.00 0.00 0.00 60 1013.7
20260503035918 64 203 0.0 0.0 0.00 0.00 0.00 60 1014.1
20260503035414 65 210 0.0 0.0 0.00 0.00 0.00 60 1013.7
20260503034912 66 311 0.9 1.7 0.00 0.00 0.00 56 1013.7
20260503034409 65 232 0.0 0.0 0.00 0.00 0.00 59 1013.4
20260503033906 65 214 0.0 0.0 0.00 0.00 0.00 60 1013.4
20260503033404 66 192 0.0 0.0 0.00 0.00 0.00 60 1013.4
20260503032902 66 224 0.9 0.9 0.00 0.00 0.00 58 1013.0
20260503032400 67 217 0.0 0.9 0.00 0.00 0.00 57 1013.0
20260503031857 67 337 1.7 1.7 0.00 0.00 0.00 57 1013.0
20260503031349 68 206 0.0 0.9 0.00 0.00 0.00 58 1013.0
20260503030845 68 359 1.7 2.6 0.00 0.00 0.00 56 1013.0
20260503030342 68 253 0.9 1.7 0.00 0.00 0.00 56 1013.0
20260503025838 68 233 0.0 0.0 0.00 0.00 0.00 59 1013.0
20260503025336 68 239 0.0 0.0 0.00 0.00 0.00 60 1012.7
20260503024833 69 214 0.0 0.0 0.00 0.00 0.00 62 1013.0
20260503024330 69 225 0.0 0.0 0.00 0.00 0.00 58 1013.0
20260503023826 69 305 1.7 2.6 0.00 0.00 0.00 57 1013.0
20260503023324 69 333 1.7 1.7 0.00 0.00 0.00 57 1012.7
20260503022820 70 268 0.9 0.9 0.00 0.00 0.00 58 1013.0
20260503022320 70 351 1.7 1.7 0.00 0.00 0.00 56 1012.7
20260503021817 71 355 3.5 3.5 0.00 0.00 0.00 56 1013.0
20260503021313 70 48 1.7 1.7 0.00 0.00 0.00 56 1013.0
20260503020811 71 327 3.5 5.2 0.00 0.00 0.00 56 1013.0
20260503020309 71 269 1.7 2.6 0.00 0.00 0.00 59 1013.0
20260503015804 71 323 2.6 3.5 0.00 0.00 0.00 56 1013.0
20260503015305 72 300 5.2 6.1 0.00 0.00 0.00 56 1013.0
20260503014757 72 316 1.7 1.7 0.00 0.00 0.00 57 1012.7
20260503014255 72 314 4.3 5.2 0.00 0.00 0.00 56 1012.7
20260503013752 72 1 3.5 7.0 0.00 0.00 0.00 57 1012.7
20260503013250 73 302 1.7 2.6 0.00 0.00 0.00 58 1013.0
20260503012747 73 198 0.0 0.9 0.00 0.00 0.00 59 1012.7
20260503012244 73 341 4.3 6.1 0.00 0.00 0.00 57 1013.0
20260503011741 73 318 1.7 1.7 0.00 0.00 0.00 56 1012.7
20260503011238 73 325 3.5 5.2 0.00 0.00 0.00 56 1013.0
20260503010734 73 343 5.2 6.1 0.00 0.00 0.00 57 1013.0
20260503010231 73 280 1.7 1.7 0.00 0.00 0.00 60 1013.0
20260503005728 73 358 3.5 6.1 0.00 0.00 0.00 57 1013.0
20260503005226 74 43 6.1 7.8 0.00 0.00 0.00 57 1013.0
20260503004721 74 354 3.5 3.5 0.00 0.00 0.00 56 1013.0
20260503004220 75 12 2.6 2.6 0.00 0.00 0.00 56 1013.0
20260503003717 75 195 0.0 0.0 0.00 0.00 0.00 57 1013.0
20260503003214 75 245 0.9 0.9 0.00 0.00 0.00 57 1013.0
20260503002710 74 89 0.9 0.9 0.00 0.00 0.00 58 1013.4
20260503002207 74 312 0.9 0.9 0.00 0.00 0.00 58 1013.0
20260503001703 74 22 3.5 3.5 0.00 0.00 0.00 57 1013.4
20260503001200 74 338 1.7 2.6 0.00 0.00 0.00 57 1013.0
20260503000658 74 358 3.5 5.2 0.00 0.00 0.00 57 1013.0
20260503000155 74 220 0.9 2.6 0.00 0.00 0.00 58 1013.4
20260502235651 74 36 3.5 5.2 0.00 0.00 0.00 56 1013.0
20260502235150 75 322 1.7 1.7 0.00 0.00 0.00 56 1013.0
20260502234645 75 46 1.7 2.6 0.00 0.00 0.00 57 1013.0
20260502234143 76 72 0.9 0.9 0.00 0.00 0.00 55 1013.4
20260502233638 75 15 1.7 2.6 0.00 0.00 0.00 55 1013.4
20260502233130 74 206 1.7 2.6 0.00 0.00 0.00 56 1013.4
20260502232626 74 225 0.0 0.0 0.00 0.00 0.00 56 1013.4
20260502232124 74 173 1.7 2.6 0.00 0.00 0.00 58 1013.7
20260502231620 74 346 3.5 3.5 0.00 0.00 0.00 57 1013.7
20260502231118 73 335 4.3 6.1 0.00 0.00 0.00 58 1013.7
20260502230616 73 286 3.5 3.5 0.00 0.00 0.00 59 1013.7
20260502230114 74 13 6.1 7.8 0.00 0.00 0.00 58 1013.7
20260502225609 74 207 1.7 2.6 0.00 0.00 0.00 58 1014.1
20260502225107 73 195 0.0 0.9 0.00 0.00 0.00 59 1014.1
20260502224603 73 18 2.6 2.6 0.00 0.00 0.00 61 1014.1
20260502224100 74 344 5.2 7.0 0.00 0.00 0.00 58 1014.1
20260502223557 73 346 0.9 2.6 0.00 0.00 0.00 60 1014.1
20260502223056 73 12 3.5 6.1 0.00 0.00 0.00 60 1014.4
20260502222553 74 252 3.5 5.2 0.00 0.00 0.00 58 1014.4
20260502222049 73 292 3.5 5.2 0.00 0.00 0.00 59 1014.1
20260502221545 73 350 3.5 3.5 0.00 0.00 0.00 59 1014.4
20260502221042 72 302 2.6 3.5 0.00 0.00 0.00 60 1014.4
20260502220538 73 29 5.2 7.0 0.00 0.00 0.00 59 1014.7
20260502220035 73 37 3.5 3.5 0.00 0.00 0.00 61 1014.4
20260502215532 73 350 5.2 7.0 0.00 0.00 0.00 60 1014.4
20260502215029 72 290 2.6 3.5 0.00 0.00 0.00 62 1014.7
20260502214526 73 306 1.7 2.6 0.00 0.00 0.00 59 1014.7
20260502214023 73 270 1.7 2.6 0.00 0.00 0.00 60 1014.7
20260502213520 73 212 0.0 0.0 0.00 0.00 0.00 63 1014.7
20260502213018 71 318 4.3 7.0 0.00 0.00 0.00 62 1014.7
20260502212516 71 343 2.6 2.6 0.00 0.00 0.00 63 1014.7